Retour au catalogue

STARLINK-32666

ActifCommunicationsVLEO
NORAD 62214·PAYLOAD·🇺🇸 United States

Lancé Dec 4, 2024 depuis Cape Canaveral Space Force Station

Loading…

Prochains Passages (prochaines 24 heures)

TLE

FraisSource: CelesTrak SupGP

Époque: Sep 15, 2026, 03:16 UTC

1 62214C 24229Y   26258.13659722 -.00009310  00000+0 -33715-3 0  2586
2 62214  42.9998 281.1983 0001299 266.6174 334.9098 15.27588069    11

Suivez STARLINK-32666 en temps réel avec AllMySat

Download on the App Store